Flag for Canada Weather past 2 weeks in Pickering, Ontario, Canada

Now
30 °F

Passing clouds.


Feels Like: 23 °F
Forecast: 26 / 33 °F
Wind: 7 mph from West

Location: Toronto Buttonville

Current Time: Dec 18, 2014 at 5:08:29 AM

Latest Report: Dec 18, 2014 at 4:00 AM


Visibility: 15 mi

Pressure: 30.04 "Hg

Humidity: 80%

Dew point: 25 °F

Location of PickeringLocation

Historic Weather in Pickering — Graph

°F

Pickering temperature yesterday

Maximum temperature yesterday: 39 °F (at 2:00 AM)
Minimum temperature yesterday: 32 °F (at 8:00 PM)
Average temperature yesterday: 37 °F

Past Weeks' High & Low Weather Summary

 TemperatureHumidityPressure
High39 °F (Dec 6, 1:00 PM)100% (Dec 9, 8:00 AM)30.81 "Hg (Dec 9, 8:00 AM)
Low18 °F (Dec 7, 8:00 AM)40% (Dec 7, 2:00 PM)29.74 "Hg (Dec 16, 2:00 PM)
Average32 °F81%30.14 "Hg
* Reported Dec 3 3:00 AM — Dec 18 3:00 AM, Pickering, Weather by CustomWeather, © 2014

Note: Actual official high and low records may vary slightly from our data, if they occured in-between our weather recording intervals... More about our weather records

Advertising

Pickering weather history for previous 24 hours

 ConditionsComfort  
Time TempWeatherWind HumidityBarometerVisibility
3:00 AM
Dec 18
30 °FPassing clouds.8 mph80%30.02 "Hg15 mi
2:00 AM30 °FPassing clouds.7 mph80%30.00 "Hg15 mi
1:00 AM30 °FPassing clouds.9 mph80%29.98 "Hg15 mi
12:00 AM30 °FPassing clouds.6 mph93%29.97 "Hg12 mi
11:00 PM
Dec 17
32 °FSnow flurries. Overcast.8 mph87%29.97 "Hg6 mi
10:00 PM32 °FSnow flurries. Overcast.8 mph93%29.96 "Hg3 mi
9:00 PM32 °FSnow flurries. Overcast.10 mph93%29.96 "Hg2 mi
8:56 PMN/ASnow flurries.7 mphN/AN/A1 mi
8:00 PM32 °FSnow flurries. Low clouds.10 mph100%29.95 "Hg1 mi
7:00 PM34 °FSnow flurries. Dense fog.7 mph93%29.94 "Hg2 mi
6:00 PM34 °FSprinkles. Passing clouds.8 mph93%29.92 "Hg7 mi
5:00 PM36 °FSprinkles. Mostly cloudy.12 mph93%29.90 "Hg4 mi
4:00 PM37 °FSprinkles. Broken clouds.7 mph87%29.88 "Hg9 mi
3:00 PM37 °FSprinkles. Partly sunny.12 mph87%29.87 "Hg9 mi
2:00 PM37 °FSprinkles. Broken clouds.8 mph93%29.85 "Hg8 mi
1:54 PMN/ASprinkles.8 mphN/AN/A8 mi
1:00 PM37 °FSprinkles. Mostly cloudy.13 mph87%29.85 "Hg7 mi
12:00 PM37 °FSprinkles. Partly sunny.9 mph87%29.85 "Hg8 mi
11:50 AMN/ASprinkles.12 mphN/AN/A8 mi
11:00 AM37 °FSprinkles. Mostly cloudy.12 mph87%29.86 "Hg8 mi
10:00 AM37 °FSprinkles. Overcast.14 mph93%29.86 "Hg9 mi
9:00 AM39 °FSprinkles. Mostly cloudy.15 mph93%29.83 "Hg9 mi
8:47 AMN/ALight rain.7 mphN/AN/A7 mi
8:00 AM39 °FLight rain. Mostly cloudy.6 mph93%29.81 "Hg9 mi
7:00 AM39 °FMostly cloudy.5 mph93%29.80 "Hg10 mi
6:49 AMN/AMostly cloudy.5 mphN/AN/A10 mi
6:00 AM39 °FLight rain. Mostly cloudy.3 mph93%29.79 "Hg8 mi
5:00 AM39 °FLight rain. Mostly cloudy.5 mph93%29.77 "Hg8 mi
Weather by CustomWeather, © 2014

See weather overviewHow to use our weather pages